Regional Weather Roundup
Issued by NWS

Home | Current Version | Previous Version | Graphics & Text | Print | Product List | Glossary On
Versions: 1 2 3 4 5 6 7 8 9 10 11 12 13 14 15 16 17 18 19 20 21 22 23 24 25 26 27 28 29 30 31 32 33 34 35 36 37 38 39 40 41 42 43 44 45 46 47 48 49 50
000
ASUS43 KBIS 202001
RWRND

NORTH DAKOTA REGIONAL WEATHER ROUNDUP
NATIONAL WEATHER SERVICE BISMARCK ND
300 PM CDT MON APR 20 2015

NOTE: "FAIR" INDICATES FEW OR NO CLOUDS BELOW 12,000 FEET WITH NO
SIGNIFICANT WEATHER AND/OR OBSTRUCTIONS TO VISIBILITY.


NDZ001>003-009>011-017-202100-
NORTHWEST NORTH DAKOTA

CITY           SKY/WX    TMP DP  RH WIND       PRES   REMARKS
WILLISTON      MOSUNNY   53  13  20 N23G35    29.86F
MINOT          SUNNY     50   8  18 NW28G45   29.75F
MINOT AFB      SUNNY     49  10  21 NW33      29.75S
$$

NDZ018>021-031>035-040>046-202100-
SOUTHWEST NORTH DAKOTA

CITY           SKY/WX    TMP DP  RH WIND       PRES   REMARKS
BISMARCK       SUNNY     52   2  13 NW29G48   29.75F
DICKINSON      MOSUNNY   49  12  22 NW24G38   29.81F
GARRISON         N/A     51   9  18 N35G48    29.75F
HETTINGER ARPT PTSUNNY   51  13  21 NW29G38   29.84F
$$

NDZ004>008-012>016-024-026-027-054-202100-
NORTHEAST NORTH DAKOTA

CITY           SKY/WX    TMP DP  RH WIND       PRES   REMARKS
GRAND FORKS    LGT SNOW  35  31  85 NW29G37   29.60R FOG
GRND FRKS AFB  LGT SNOW  35  32  89 N30G39    29.60R FOG
DEVILS LAKE    CLOUDY    39  28  65 NW25G35   29.64F
$$

NDZ022-023-025-028>030-036>039-047>053-202100-
SOUTHEAST NORTH DAKOTA

CITY           SKY/WX    TMP DP  RH WIND       PRES   REMARKS
FARGO          LGT RAIN  38  33  82 NW26G36   29.60S
JAMESTOWN      CLOUDY    42  25  50 NW30G37   29.65F
$$



USA.gov is the U.S. government's official web portal to all federal, state and local government web resources and services.